Simultaneous Nadir Overpasses (SNOs) Predictions

Prediction of SNOs between NOAA-19 and TERRA Satellite Orbit:

Table of predicted SNOs for the next 14.0 days since TLE Epoch: 10/5/2016
Index Date (NOAA-19) Time (NOAA-19) Lat,Lon (NOAA-19) SZA (NOAA-19 ) Date (TERRA) Time (TERRA) Lat,Lon (TERRA) SZA (TERRA ) Distance(km) Time Diff (sec)
1 10/06/2016 13:25:07 74.35, -13.07 79.98 10/06/2016 13:25:35 74.36, -12.99 80.00 2.51 28
2 10/06/2016 14:16:06 -74.26, 154.42 100.08 10/06/2016 14:15:04 -74.29, 154.47 100.08 2.89 62
3 10/08/2016 18:59:06 -74.36, 83.48 99.16 10/08/2016 18:59:20 -74.35, 83.56 99.16 2.50 14
4 10/08/2016 19:50:01 74.04,-108.44 80.60 10/08/2016 19:48:49 74.17,-109.23 80.66 27.78 72
5 10/11/2016 00:33:06 74.36,-179.97 81.70 10/11/2016 00:33:03 74.34,-179.91 81.68 2.74 3
6 10/
